Location: Koszewko
(53.2876°N, 14.9061°E)
Time: 22:54:30
(UTC+00:00)

ERBS - Pass Details

Date: 03 March 2021
Orbit: 408 x 412 km, 57.0° (Epoch: 12 April)

Event Time Altitude Azimuth Distance (km) Brightness Sun altitude
Rises 18:58:25 0° 264° (W) 2,351 7.2 -20.9°
Reaches altitude 10° 19:00:33 10° 269° (W) 1,489 6.0 -21.2°
Enters shadow 19:03:43 50° 342° (NNW) 536 2.9 -21.6°
